Total_Precipitation_Accumulation
1.00 0.98 1.01 1.15 1.13 1.18 1.19 0.98 0.80 0.81 0.80 0.82 0.74 0.72 0.74 0.73 0.75 0.81 0.85 0.83 0.80 0.93 1.07 1.11 1.08 1.03 0.95 0.91 0.87 0.86 0.83 0.81 0.75 0.69 0.58 0.50 0.49 0.48 0.50 0.52 0.52 0.53 0.53
1.18 1.20 1.25 1.31 1.30 1.43 1.48 1.22 1.07 1.15 1.09 1.10 0.98 0.92 0.90 0.93 0.93 0.90 0.94 0.94 0.83 0.81 0.90 1.03 1.10 1.10 1.07 1.02 0.94 0.90 0.87 0.87 0.83 0.75 0.66 0.58 0.54 0.53 0.52 0.55 0.56 0.56 0.52
1.54 1.62 1.69 1.61 1.53 1.50 1.52 1.45 1.35 1.33 1.32 1.17 1.08 1.08 1.12 1.02 0.96 1.03 1.12 1.12 1.03 0.94 0.94 0.94 0.99 1.07 1.16 1.19 1.18 1.09 1.01 0.95 0.88 0.82 0.77 0.70 0.63 0.59 0.56 0.55 0.56 0.56 0.54
1.79 1.98 2.04 1.83 1.69 1.65 1.72 1.76 1.62 1.56 1.56 1.52 1.30 1.14 1.21 1.20 1.09 1.09 1.10 1.10 1.16 1.11 1.04 0.93 0.95 1.01 1.07 1.15 1.23 1.23 1.15 1.04 0.98 0.93 0.88 0.83 0.77 0.69 0.61 0.57 0.56 0.55 0.56
1.95 2.13 2.19 2.12 1.93 1.92 1.99 1.93 2.04 1.92 1.88 1.69 1.41 1.25 1.14 1.06 1.08 1.07 1.09 1.11 1.08 1.07 1.12 1.10 1.08 1.08 1.10 1.17 1.21 1.21 1.19 1.15 1.10 1.03 0.98 0.95 0.87 0.78 0.69 0.64 0.61 0.61 0.62
2.13 2.33 2.36 2.38 2.26 2.27 2.35 2.31 2.31 2.16 1.94 1.75 1.52 1.34 1.14 0.96 0.96 1.01 1.02 0.99 0.93 0.89 0.91 0.95 1.04 1.03 1.05 1.09 1.16 1.27 1.41 1.40 1.28 1.15 1.11 1.08 1.01 0.89 0.77 0.72 0.68 0.66 0.65
2.79 2.93 2.85 2.75 2.58 2.50 2.48 2.40 2.28 2.18 2.03 1.94 1.82 1.57 1.25 0.99 0.88 0.86 0.89 0.87 0.80 0.79 0.76 0.80 0.86 0.89 0.91 0.94 1.00 1.09 1.27 1.37 1.35 1.27 1.21 1.16 1.10 1.02 0.94 0.85 0.79 0.76 0.74
3.42 3.37 3.26 3.00 2.75 2.56 2.40 2.28 2.13 2.00 1.88 1.83 1.81 1.74 1.51 1.22 0.93 0.76 0.81 0.82 0.80 0.81 0.79 0.75 0.76 0.77 0.76 0.80 0.84 0.86 0.92 0.97 1.05 1.15 1.12 1.06 1.04 1.04 1.04 1.01 0.96 0.93 0.89
3.25 3.14 3.04 2.90 2.69 2.49 2.32 2.26 2.17 2.06 1.91 1.87 1.84 1.85 1.67 1.35 1.03 0.85 0.77 0.78 0.81 0.80 0.77 0.75 0.73 0.74 0.75 0.73 0.73 0.80 0.85 0.82 0.81 0.88 0.96 0.97 0.98 1.00 1.02 1.04 1.03 1.03 1.02
2.94 2.78 2.78 2.74 2.60 2.42 2.25 2.10 2.03 2.01 2.01 1.90 1.78 1.60 1.43 1.23 1.17 1.04 0.89 0.82 0.78 0.75 0.72 0.70 0.68 0.70 0.72 0.73 0.78 0.83 0.85 0.80 0.77 0.77 0.81 0.85 0.87 0.89 0.92 0.96 1.02 1.08 1.12
2.67 2.52 2.50 2.42 2.25 2.11 1.99 1.84 1.75 1.73 1.76 1.74 1.65 1.56 1.47 1.32 1.17 1.10 1.01 0.88 0.84 0.77 0.69 0.66 0.66 0.68 0.70 0.72 0.75 0.80 0.84 0.78 0.79 0.80 0.80 0.82 0.85 0.90 0.95 1.01 1.11 1.22 1.32
2.47 2.24 2.03 1.91 1.89 1.77 1.57 1.45 1.37 1.32 1.33 1.38 1.43 1.38 1.30 1.28 1.22 1.17 1.10 1.00 0.94 0.88 0.77 0.74 0.71 0.68 0.69 0.66 0.66 0.78 0.77 0.75 0.74 0.73 0.74 0.75 0.76 0.81 0.88 0.95 1.08 1.24 1.40
1.99 1.80 1.62 1.51 1.46 1.43 1.34 1.22 1.15 1.07 1.04 1.08 1.11 1.17 1.18 1.16 1.11 1.14 1.19 1.16 1.06 0.93 0.79 0.70 0.61 0.55 0.57 0.62 0.70 0.74 0.70 0.69 0.64 0.62 0.65 0.72 0.75 0.74 0.73 0.77 0.86 0.98 1.10
1.53 1.32 1.21 1.13 1.05 0.97 0.94 0.94 0.98 0.95 0.91 0.94 0.97 1.05 1.10 1.09 1.07 1.07 1.09 1.15 1.15 1.00 0.85 0.71 0.60 0.55 0.57 0.61 0.69 0.62 0.63 0.62 0.58 0.58 0.59 0.64 0.70 0.79 0.75 0.69 0.68 0.73 0.79
1.15 1.03 0.92 0.86 0.82 0.78 0.74 0.73 0.77 0.81 0.79 0.80 0.83 0.87 0.92 0.90 0.90 0.94 0.97 1.03 1.09 1.04 0.92 0.74 0.69 0.68 0.69 0.68 0.75 0.67 0.69 0.63 0.59 0.65 0.64 0.68 0.76 0.90 0.90 0.77 0.66 0.60 0.59
0.88 0.81 0.77 0.73 0.70 0.66 0.66 0.67 0.68 0.69 0.70 0.68 0.64 0.60 0.59 0.59 0.62 0.64 0.70 0.78 0.86 0.94 0.93 0.75 0.68 0.71 0.74 0.68 0.76 0.70 0.68 0.67 0.67 0.89 1.00 0.90 0.84 1.00 1.12 1.01 0.85 0.73 0.67
0.67 0.66 0.62 0.60 0.58 0.58 0.58 0.58 0.55 0.52 0.50 0.48 0.46 0.46 0.49 0.48 0.49 0.49 0.53 0.63 0.73 0.84 0.94 0.78 0.68 0.70 0.76 0.74 0.75 0.73 0.70 0.71 0.82 1.21 1.44 1.61 1.33 1.21 1.27 1.17 1.02 0.84 0.73
0.60 0.58 0.52 0.49 0.47 0.44 0.42 0.39 0.37 0.36 0.38 0.40 0.42 0.43 0.45 0.46 0.45 0.44 0.48 0.56 0.66 0.80 0.96 0.92 0.78 0.79 0.80 0.77 0.84 0.85 0.75 0.66 0.73 1.17 1.50 1.83 1.77 1.56 1.56 1.37 1.17 0.91 0.75
0.53 0.50 0.46 0.44 0.40 0.39 0.36 0.33 0.31 0.31 0.33 0.36 0.40 0.43 0.45 0.51 0.51 0.51 0.56 0.61 0.66 0.75 0.91 0.96 0.89 0.90 0.95 0.97 1.09 1.01 0.87 0.82 0.67 0.92 1.35 1.67 1.85 1.91 2.01 1.85 1.53 1.15 0.85
0.47 0.51 0.50 0.40 0.33 0.30 0.31 0.29 0.26 0.27 0.30 0.33 0.37 0.42 0.46 0.55 0.59 0.62 0.62 0.65 0.70 0.79 0.86 0.96 0.96 1.00 1.06 1.12 1.17 1.14 0.98 0.85 0.75 0.76 1.18 1.65 1.98 2.03 2.23 2.35 2.04 1.53 1.09
0.44 0.44 0.45 0.42 0.36 0.30 0.27 0.25 0.22 0.24 0.30 0.36 0.39 0.40 0.44 0.53 0.61 0.58 0.54 0.55 0.67 0.83 0.89 0.98 1.01 0.99 0.98 1.08 1.10 0.96 0.86 0.77 0.69 0.70 0.88 1.30 1.98 2.31 2.37 2.42 2.32 1.81 1.33
0.47 0.42 0.42 0.40 0.37 0.29 0.28 0.25 0.22 0.25 0.32 0.39 0.43 0.42 0.39 0.42 0.41 0.41 0.46 0.50 0.60 0.80 1.06 1.20 1.11 1.03 0.91 0.91 0.94 0.89 0.87 0.83 0.78 0.59 0.62 0.92 1.51 2.24 2.50 2.50 2.39 1.82 1.31
0.44 0.40 0.37 0.36 0.34 0.30 0.27 0.24 0.23 0.26 0.36 0.44 0.46 0.44 0.36 0.30 0.34 0.38 0.40 0.43 0.54 0.69 0.93 1.24 1.30 1.06 0.97 0.91 0.93 0.94 0.95 0.98 0.91 0.65 0.66 0.91 1.30 1.97 2.21 2.26 2.15 1.58 1.16
0.41 0.42 0.39 0.37 0.35 0.27 0.23 0.22 0.23 0.28 0.37 0.41 0.42 0.42 0.42 0.38 0.33 0.34 0.37 0.45 0.57 0.72 0.82 0.90 1.18 1.02 0.83 0.81 0.85 0.86 0.91 0.93 0.86 0.70 0.68 0.93 1.26 1.73 1.78 1.87 1.83 1.42 1.09
0.41 0.36 0.32 0.33 0.34 0.30 0.22 0.19 0.20 0.28 0.34 0.35 0.33 0.32 0.29 0.31 0.31 0.40 0.53 0.71 0.84 0.97 0.93 1.04 1.19 1.15 1.03 0.94 0.81 0.80 0.92 0.94 0.90 0.80 0.72 0.88 1.13 1.29 1.42 1.55 1.46 1.31 1.09
0.37 0.30 0.26 0.28 0.30 0.27 0.16 0.13 0.15 0.22 0.28 0.31 0.32 0.34 0.27 0.25 0.34 0.49 0.70 0.93 1.04 1.14 1.04 1.11 1.32 1.37 1.22 1.18 1.14 1.01 1.02 0.97 0.92 0.90 0.74 0.78 0.96 0.99 1.24 1.32 1.24 1.15 1.10